Tucson Davis Monthan, AZ

8:31 PM MST on June 24, 2018 (GMT -0700)
Davis-Monthan Air Force Base

Weather History for KDMA - December, 2017

Change the Weather History Date:

Sunday, December 17, 2017

  Actual Average Record
Temperature  
Mean Temperature 50 °F -  
Max Temperature 55 °F 67 °F 81 °F (1980)
Min Temperature 44 °F 40 °F 27 °F (1954)
Degree Days  
Heating Degree Days 16    
Moisture  
Dew Point 42 °F    
Average Humidity 74    
Maximum Humidity 93    
Minimum Humidity 47    
Precipitation  
Precipitation 0.37 in - - ()
Sea Level Pressure  
Sea Level Pressure 29.87 in    
Wind  
Wind Speed 9 mph (SE)    
Max Wind Speed 26 mph    
Max Gust Speed 32 mph    
Visibility 10 miles    
Events Rain , Thunderstorm    
Averages and records for this station are not official NWS values.
T = Trace of Precipitation, MM = Missing Value Source: NWS Daily Summary

Daily Weather History Graph

Daily Weather History Graph

Search for Another Location

Airport or City:

Astronomy

Dec. 17, 2017 Rise Set
Actual Time 7:18 AM MST 5:21 PM MST
Civil Twilight 6:51 AM MST 5:48 PM MST
Nautical Twilight 6:20 AM MST 6:19 PM MST
Astronomical Twilight 5:50 AM MST 6:48 PM MST
Moon 6:37 AM MST (12/17) 5:17 PM MST (12/17)
Length of Visible Light 10h 57m
Length of Day
10h 02m
Waning Crescent, 0% of the Moon is Illuminated
Dec 17
Waning Crescent
Dec 17
New
Dec 26
First Quarter
Jan 1
Full
Jan 8
Last Quarter

Hourly Weather History & Observations

Time (MST) Temp. Windchill Dew Point Humidity Pressure Visibility Wind Dir Wind Speed Gust Speed Precip Events Conditions
12:52 AM 53.6 °F - 33.8 °F 47% 29.75 in 10.0 mi SSE 8.1 mph - N/A   Drizzle
12:58 AM 54.5 °F - 36.3 °F 50% 29.74 in 10.0 mi South 5.8 mph - 0.00 in   Light Drizzle
1:01 AM 55.4 °F - 37.4 °F 51% 29.75 in 10.0 mi South 4.6 mph - N/A   Mostly Cloudy
1:25 AM 55.4 °F - 35.6 °F 47% 29.75 in 10.0 mi WSW 4.6 mph - N/A   Light Drizzle
1:58 AM 55.2 °F - 39.7 °F 56% 29.75 in 10.0 mi South 11.5 mph 21.9 mph 0.00 in Rain Light Rain
2:32 AM 53.6 °F - 41.0 °F 62% 29.75 in 10.0 mi SSW 10.4 mph - N/A   Mostly Cloudy
2:58 AM 53.8 °F - 39.4 °F 58% 29.76 in 10.0 mi SSW 4.6 mph - 0.01 in   Mostly Cloudy
3:14 AM 53.6 °F - 39.2 °F 58% 29.77 in 10.0 mi South 5.8 mph - N/A Rain Light Rain
3:55 AM 48.2 °F - 41.0 °F 76% 29.76 in 10.0 mi SE 17.3 mph 29.9 mph N/A Rain Light Rain
3:58 AM 48.7 °F - 41.2 °F 75% 29.76 in 10.0 mi ESE 17.3 mph 29.9 mph 0.07 in Rain Light Rain
4:02 AM 48.2 °F - 41.0 °F 76% 29.83 in 10.0 mi SE 15.0 mph - N/A   Overcast
4:58 AM 47.7 °F - 41.7 °F 80% 29.82 in 10.0 mi ESE 13.8 mph - 0.00 in   Partly Cloudy
5:58 AM 46.8 °F - 41.2 °F 81% 29.83 in 10.0 mi East 9.2 mph - N/A   Partly Cloudy
6:25 AM 48.2 °F - 42.8 °F 82% 29.84 in 10.0 mi ESE 10.4 mph - N/A Thunderstorm Thunderstorm
6:40 AM 48.2 °F - 41.0 °F 76% 29.85 in 10.0 mi SE 9.2 mph - N/A   Mostly Cloudy
6:58 AM 48.6 °F - 40.6 °F 74% 29.90 in 10.0 mi SSW 24.2 mph 31.1 mph 0.01 in   Overcast
6:59 AM 48.2 °F - 41.0 °F 76% 29.90 in 10.0 mi SSW 26.5 mph 32.2 mph N/A Rain Light Rain
7:45 AM 44.6 °F - 39.2 °F 81% 29.89 in 10.0 mi Calm Calm - N/A   Overcast
7:58 AM 45.7 °F 43.4 °F 40.5 °F 82% 29.89 in 10.0 mi North 4.6 mph - 0.08 in   Overcast
8:25 AM 46.4 °F 42.4 °F 42.8 °F 87% 29.91 in 10.0 mi NE 8.1 mph - N/A Rain Light Rain
8:40 AM 44.6 °F 41.4 °F 41.0 °F 87% 29.92 in 5.0 mi East 5.8 mph - N/A Rain Rain
8:55 AM 44.6 °F 42.2 °F 41.0 °F 87% 29.92 in 5.0 mi NE 4.6 mph - N/A Rain Heavy Rain
8:58 AM 45.1 °F 42.8 °F 40.8 °F 85% 29.92 in 5.0 mi NE 4.6 mph - 0.07 in Rain Heavy Rain
9:58 AM 46.9 °F - 43.5 °F 88% 29.94 in 10.0 mi South 5.8 mph - 0.06 in Rain Light Rain
10:13 AM 48.2 °F - 44.6 °F 87% 29.94 in 10.0 mi SE 5.8 mph - N/A Rain Light Rain
10:28 AM 46.4 °F 44.3 °F 44.6 °F 93% 29.94 in 10.0 mi ESE 4.6 mph - N/A Rain Light Rain
10:51 AM 48.2 °F - 44.6 °F 87% 29.94 in 10.0 mi ESE 4.6 mph - N/A   Overcast
10:58 AM 48.4 °F - 45.3 °F 89% 29.93 in 10.0 mi SE 4.6 mph - 0.03 in   Overcast
11:58 AM 51.4 °F - 48.4 °F 89% 29.86 in 10.0 mi ESE 13.8 mph - N/A   Overcast
12:58 PM 53.8 °F - 50.0 °F 87% 29.85 in 10.0 mi East 6.9 mph - N/A   Mostly Cloudy
1:46 PM 55.4 °F - 44.6 °F 67% 29.84 in 10.0 mi SE 11.5 mph - N/A   Light Drizzle
1:58 PM 54.9 °F - 43.7 °F 66% 29.83 in 10.0 mi SSE 10.4 mph - 0.00 in Rain Light Rain
2:08 PM 55.4 °F - 42.8 °F 63% 29.83 in 10.0 mi SE 12.7 mph - N/A   Overcast
2:14 PM 55.4 °F - 42.8 °F 63% 29.84 in 10.0 mi SSE 11.5 mph - N/A   Light Drizzle
2:41 PM 53.6 °F - 42.8 °F 67% 29.84 in 10.0 mi South 6.9 mph - N/A   Overcast
2:58 PM 53.6 °F - 43.7 °F 69% 29.84 in 10.0 mi SE 8.1 mph - 0.00 in   Overcast
3:58 PM 54.9 °F - 43.0 °F 64% 29.86 in 10.0 mi ESE 8.1 mph - N/A   Overcast
4:20 PM 53.6 °F - 42.8 °F 67% 29.87 in 10.0 mi ENE 10.4 mph - N/A   Light Drizzle
4:32 PM 53.6 °F - 42.8 °F 67% 29.87 in 10.0 mi ENE 6.9 mph - N/A   Overcast
4:34 PM 53.6 °F - 42.8 °F 67% 29.87 in 10.0 mi ENE 6.9 mph - N/A   Light Drizzle
4:58 PM 52.5 °F - 42.3 °F 68% 29.88 in 10.0 mi Calm Calm - 0.00 in Rain Light Rain
5:28 PM 50.0 °F - 42.8 °F 76% 29.91 in 10.0 mi SW 11.5 mph 20.7 mph N/A Rain Light Rain
5:43 PM 48.2 °F - 41.0 °F 76% 29.92 in 10.0 mi SW 6.9 mph - N/A Rain Light Rain
5:58 PM 47.5 °F - 40.3 °F 76% 29.93 in 10.0 mi SSW 4.6 mph - 0.02 in Rain Light Rain
6:22 PM 48.2 °F - 42.8 °F 82% 29.93 in 10.0 mi South 5.8 mph - N/A   Overcast
6:58 PM 47.7 °F - 43.0 °F 84% 29.93 in 10.0 mi East 11.5 mph - 0.02 in   Overcast
7:58 PM 46.4 °F 42.4 °F 41.9 °F 84% 29.94 in 10.0 mi ESE 8.1 mph - N/A   Partly Cloudy
8:58 PM 46.4 °F 42.9 °F 41.5 °F 83% 29.96 in 10.0 mi SSE 6.9 mph - N/A   Mostly Cloudy
9:58 PM 46.4 °F 44.3 °F 41.5 °F 83% 29.97 in 10.0 mi East 4.6 mph - N/A   Mostly Cloudy
10:58 PM 46.4 °F 42.9 °F 41.5 °F 83% 29.98 in 10.0 mi South 6.9 mph - N/A   Scattered Clouds
11:58 PM 46.9 °F - 41.7 °F 82% 29.99 in 10.0 mi SSE 9.2 mph - N/A   Overcast